Location: Grums
(59.3529°N, 13.1129°E)
Time: 23:26:24
(UTC+02:00)

Envisat - Pass Details

Date: 03 October 2021
Orbit: 764 x 766 km, 98.2° (Epoch: 16 October)

Event Time Altitude Azimuth Distance (km) Brightness Sun altitude
Rises 05:55:06 0° 18° (NNE) 3,247 6.7 -11.3°
Reaches altitude 10° 05:57:33 10° 26° (NNE) 2,316 6.0 -11.0°
Maximum altitude 06:02:23 42° 97° (E) 1,086 4.4 -10.4°
Drops below altitude 10° 06:07:12 10° 168° (SSE) 2,300 5.5 -9.7°
Sets 06:09:37 0° 176° (S) 3,222 6.2 -9.4°
